User: anonymous   Login
Location: Unspecified
(0.0000°N, 0.0000°E)
Time: 09:28:08
(UTC+00:00)
Language:

UKube-1 - Orbit

View from above orbital plane
View from above orbital plane
View from above satellite
View from above satellite

Ground track
Ground track

The orbit data is extracted from the following two-line orbital elements,

1 40074U 14037F   17327.66726839  .00000503  00000-0  68028-4 0  9993
2 40074  98.3633  89.9202 0003265 255.4663 104.6190 14.83656748182820
Epoch (UTC): 23 November 2017 16:00:51
Eccentricity: 0.0003265
inclination: 98.3633°
perigee height: 615 km
apogee height: 620 km
right ascension of ascending node: 89.9202°
argument of perigee: 255.4663°
revolutions per day: 14.83656748
mean anomaly at epoch: 104.6190°
orbit number at epoch: 18282

The dashed part of the orbit path shows where the satellite is in the earth's shadow,  

DLR